CCA4004 ZSPD-ZBTJ

Flight info

Callsign CCA4004
Flight time N/A
Altitude 36100
Route PIK95D/35R PIKAS G330 PIMOL A593 DALIM W157 AVBOX AVBOX3H
Aircraft A320/M-SABDE3FGHIRWY/LB1

Departure

Time N/A
Airport Shanghai Pudong International Airport (ZSPD)

Arrival

Time 2026-04-18 05:15
Airport Tianjin Binhai International Airport (ZBTJ)
Time Latitude Longitude Altitude Speed Heading
2026-04-18 04:48 38.75525 116.98124 10993 ft 307 kts 97°
2026-04-18 04:48 38.75229 117.00835 10744 ft 305 kts 97°
2026-04-18 04:48 38.74934 117.03514 10507 ft 304 kts 97°
2026-04-18 04:48 38.74637 117.06194 10263 ft 302 kts 97°
2026-04-18 04:49 38.74337 117.08863 10026 ft 302 kts 97°
2026-04-18 04:49 38.74039 117.11517 9867 ft 302 kts 97°
2026-04-18 04:49 38.73746 117.14181 9746 ft 302 kts 97°
2026-04-18 04:49 38.73457 117.16835 9607 ft 301 kts 96°
2026-04-18 04:50 38.73370 117.19509 9482 ft 300 kts 86°
2026-04-18 04:50 38.73611 117.22149 9351 ft 298 kts 77°
2026-04-18 04:50 38.74161 117.24691 9217 ft 296 kts 68°
2026-04-18 04:50 38.74992 117.27090 9091 ft 295 kts 62°
2026-04-18 04:51 38.75896 117.29450 8969 ft 294 kts 62°
2026-04-18 04:51 38.76788 117.31801 8835 ft 294 kts 62°
2026-04-18 04:51 38.77681 117.34159 8707 ft 293 kts 62°
2026-04-18 04:51 38.78282 117.35746 8621 ft 293 kts 62°
2026-04-18 04:52 38.79382 117.37917 8485 ft 288 kts 43°
2026-04-18 04:52 38.81010 117.39342 8370 ft 283 kts 19°
2026-04-18 04:52 38.82913 117.39829 8241 ft 278 kts 356°
2026-04-18 04:52 38.84779 117.39350 8112 ft 274 kts 335°
2026-04-18 04:53 38.86479 117.38337 7987 ft 274 kts 333°
2026-04-18 04:53 38.88207 117.37282 7604 ft 274 kts 333°
2026-04-18 04:53 38.89902 117.36231 7148 ft 268 kts 332°
2026-04-18 04:53 38.91549 117.35203 6754 ft 259 kts 332°
2026-04-18 04:54 38.93106 117.34215 6628 ft 240 kts 332°
2026-04-18 04:54 38.94577 117.33290 6338 ft 231 kts 332°
2026-04-18 04:54 38.96000 117.32408 6108 ft 220 kts 332°
2026-04-18 04:54 38.97338 117.31584 5973 ft 208 kts 332°
2026-04-18 04:55 38.98634 117.30783 5854 ft 205 kts 332°
2026-04-18 04:55 38.99911 117.29993 5729 ft 204 kts 332°
2026-04-18 04:55 39.01186 117.29191 5592 ft 204 kts 331°
2026-04-18 04:56 39.03727 117.27576 5122 ft 200 kts 332°
2026-04-18 04:56 39.04960 117.26791 4844 ft 195 kts 331°
2026-04-18 04:56 39.06170 117.26020 4578 ft 193 kts 331°
2026-04-18 04:56 39.07339 117.25277 4343 ft 180 kts 330°
2026-04-18 04:57 39.08402 117.24604 4113 ft 163 kts 330°
2026-04-18 04:57 39.09391 117.23976 3883 ft 154 kts 330°
2026-04-18 04:57 39.10320 117.23383 3692 ft 147 kts 330°
2026-04-18 04:57 39.11239 117.22792 3502 ft 147 kts 330°
2026-04-18 04:58 39.12155 117.22203 3308 ft 146 kts 329°
2026-04-18 04:58 39.13079 117.21655 3113 ft 147 kts 337°
2026-04-18 04:58 39.14085 117.21361 2920 ft 149 kts 351°
2026-04-18 04:58 39.15138 117.21378 2759 ft 153 kts
2026-04-18 04:59 39.16169 117.21723 2561 ft 153 kts 20°
2026-04-18 04:59 39.17103 117.22384 2390 ft 154 kts 34°
2026-04-18 04:59 39.17881 117.23308 2208 ft 154 kts 47°
2026-04-18 04:59 39.18484 117.24462 2027 ft 154 kts 65°
2026-04-18 05:00 39.18844 117.25750 1814 ft 154 kts 77°
2026-04-18 05:00 39.18953 117.27132 1592 ft 154 kts 93°
2026-04-18 05:00 39.18803 117.28482 1392 ft 152 kts 109°
2026-04-18 05:00 39.18414 117.29738 1165 ft 150 kts 121°
2026-04-18 05:01 39.17810 117.30833 972 ft 149 kts 137°
2026-04-18 05:01 39.17053 117.31690 785 ft 149 kts 149°
2026-04-18 05:01 39.16159 117.32332 620 ft 148 kts 157°
2026-04-18 05:01 39.15240 117.32914 397 ft 146 kts 158°
2026-04-18 05:02 39.14326 117.33469 193 ft 145 kts 158°
2026-04-18 05:02 39.13418 117.34017 38 ft 143 kts 156°
2026-04-18 05:02 39.12592 117.34536 26 ft 124 kts 155°
2026-04-18 05:02 39.11681 117.35092 415 ft 153 kts 158°
2026-04-18 05:03 39.10701 117.35695 1310 ft 158 kts 158°
2026-04-18 05:03 39.09656 117.36331 1806 ft 177 kts 158°
2026-04-18 05:03 39.08468 117.37047 2198 ft 200 kts 158°
2026-04-18 05:03 39.07115 117.37867 2578 ft 223 kts 158°
2026-04-18 05:04 39.05691 117.38738 3033 ft 235 kts 158°
2026-04-18 05:04 39.04204 117.39655 3062 ft 233 kts 158°
2026-04-18 05:04 39.02767 117.40544 3062 ft 232 kts 158°
2026-04-18 05:04 39.01355 117.41410 3045 ft 229 kts 156°
2026-04-18 05:05 38.99900 117.42213 3017 ft 226 kts 166°
2026-04-18 05:05 38.98370 117.42526 2999 ft 221 kts 182°
2026-04-18 05:05 38.96856 117.42294 3007 ft 219 kts 197°
2026-04-18 05:05 38.95445 117.41552 3007 ft 218 kts 212°
2026-04-18 05:06 38.94251 117.40360 3007 ft 216 kts 227°
2026-04-18 05:06 38.93361 117.38843 3010 ft 216 kts 241°
2026-04-18 05:06 38.92791 117.37027 3009 ft 217 kts 256°
2026-04-18 05:06 38.92625 117.35115 3002 ft 217 kts 271°
2026-04-18 05:07 38.92865 117.33194 3006 ft 219 kts 286°
2026-04-18 05:07 38.93499 117.31417 3001 ft 221 kts 301°
2026-04-18 05:07 38.94490 117.29890 3005 ft 223 kts 316°
2026-04-18 05:07 38.95772 117.28771 2994 ft 225 kts 334°
2026-04-18 05:08 38.97307 117.28270 2998 ft 228 kts 346°
2026-04-18 05:08 38.98791 117.27765 3006 ft 229 kts 340°
2026-04-18 05:08 39.00239 117.27143 2996 ft 226 kts 339°
2026-04-18 05:08 39.01691 117.26499 3014 ft 218 kts 338°
2026-04-18 05:09 39.03096 117.25884 3018 ft 209 kts 338°
2026-04-18 05:09 39.04451 117.25300 3015 ft 204 kts 339°
2026-04-18 05:09 39.05776 117.24740 3027 ft 196 kts 339°
2026-04-18 05:09 39.07030 117.24218 3022 ft 185 kts 339°
2026-04-18 05:10 39.08213 117.23730 2991 ft 172 kts 339°
2026-04-18 05:10 39.09317 117.23280 2994 ft 162 kts 339°
2026-04-18 05:10 39.10376 117.22847 2992 ft 159 kts 341°
2026-04-18 05:10 39.11418 117.22421 3033 ft 155 kts 339°
2026-04-18 05:11 39.12421 117.21969 3024 ft 150 kts 334°
2026-04-18 05:11 39.13403 117.21526 2999 ft 150 kts 344°
2026-04-18 05:11 39.14446 117.21338 2982 ft 153 kts 355°
2026-04-18 05:11 39.15507 117.21466 2830 ft 155 kts 10°
2026-04-18 05:12 39.16522 117.21931 2613 ft 156 kts 26°
2026-04-18 05:12 39.17422 117.22709 2389 ft 156 kts 39°
2026-04-18 05:12 39.18156 117.23748 2144 ft 158 kts 57°
2026-04-18 05:12 39.18677 117.25011 1893 ft 155 kts 70°
2026-04-18 05:13 39.18928 117.26350 1705 ft 156 kts 85°
2026-04-18 05:13 39.18924 117.27745 1493 ft 154 kts 99°
2026-04-18 05:13 39.18670 117.29039 1296 ft 151 kts 114°
2026-04-18 05:13 39.18186 117.30236 1085 ft 149 kts 127°
2026-04-18 05:14 39.17509 117.31242 889 ft 147 kts 143°
2026-04-18 05:14 39.16680 117.32005 681 ft 143 kts 156°
2026-04-18 05:14 39.15789 117.32550 534 ft 143 kts 159°
2026-04-18 05:14 39.14902 117.33118 313 ft 140 kts 158°
2026-04-18 05:15 39.14038 117.33635 121 ft 139 kts 158°
2026-04-18 05:15 39.13174 117.34174 27 ft 128 kts 157°
2026-04-18 05:15 39.12490 117.34578 20 ft 84 kts 155°
2026-04-18 05:15 39.12118 117.34806 19 ft 34 kts 154°
2026-04-18 05:16 39.12041 117.34854 20 ft 2 kts 150°
2026-04-18 05:16 39.12010 117.34876 21 ft 9 kts 151°
2026-04-18 05:16 39.11933 117.34930 21 ft 17 kts 152°
2026-04-18 05:16 39.11829 117.35044 24 ft 22 kts 127°
2026-04-18 05:17 39.11750 117.35214 20 ft 22 kts 91°
2026-04-18 05:17 39.11834 117.35269 19 ft 10 kts 29°
2026-04-18 05:17 39.11864 117.35360 19 ft 14 kts 60°
2026-04-18 05:17 39.11921 117.35488 19 ft 19 kts 62°
2026-04-18 05:18 39.11987 117.35667 19 ft 25 kts 58°
2026-04-18 05:18 39.12087 117.35719 19 ft 14 kts 316°
2026-04-18 05:18 39.12179 117.35648 19 ft 18 kts 334°
2026-04-18 05:18 39.12301 117.35574 20 ft 21 kts 335°
2026-04-18 05:19 39.12456 117.35562 19 ft 24 kts
2026-04-18 05:19 39.12514 117.35606 19 ft 6 kts 84°
2026-04-18 05:19 39.12512 117.35659 19 ft 5 kts 92°
2026-04-18 05:19 39.12510 117.35703 19 ft 1 kts 92°
2026-04-18 05:20 39.12510 117.35712 19 ft 3 kts 92°
2026-04-18 05:20 39.12510 117.35715 19 ft 0 kts 92°